Theta_e
342 342 341 341 339 337 336 337 338 339 341 339 340 338 338 339 339 341 341 340 339 338 342 341 342 345 348 349 350 351 352 352 352 353 351 349 349 352 360 361 361 360 358 358 356 356 355 357 357 358 361 360 360 360 359 362 362 362 360 361 361 361 361 359 359 359 360 361 361 360 361 361 359 360 359 359 359 360 360 358 358 358 360 359 360
341 340 339 340 339 336 336 336 337 339 339 337 338 338 338 338 339 338 337 337 336 337 340 337 336 336 337 341 344 348 350 351 352 353 352 350 350 351 360 362 360 359 359 357 354 353 354 355 356 356 360 360 360 358 358 359 362 362 361 361 361 361 361 361 361 359 360 361 361 361 360 361 361 360 359 358 359 359 359 359 359 359 360 360 360
341 339 337 338 338 335 334 335 335 338 339 337 339 339 339 338 338 337 337 337 337 336 337 336 335 335 336 335 335 338 344 349 351 352 351 350 350 352 354 362 360 359 356 355 354 354 355 354 356 357 359 360 359 358 358 358 361 362 362 361 361 361 360 361 360 360 359 360 360 359 358 358 359 359 360 360 358 358 359 359 360 360 359 359 360
339 339 337 337 337 334 333 334 334 336 338 337 338 339 339 337 337 338 338 337 336 335 337 335 334 334 335 335 335 335 337 345 351 351 351 349 350 351 351 353 359 360 359 358 354 353 355 355 355 355 355 359 358 357 358 359 359 361 362 362 362 361 361 362 361 360 360 360 360 360 360 359 356 358 359 357 359 358 357 358 359 358 359 359 358
337 337 339 335 336 335 333 334 334 334 336 337 338 337 335 335 335 338 337 336 334 335 338 336 334 334 335 336 336 336 337 345 347 349 349 349 348 348 350 352 353 358 359 357 357 354 355 354 354 357 357 357 360 357 356 359 359 359 359 361 362 362 362 361 360 360 358 360 359 359 359 360 359 359 357 355 356 358 357 357 358 357 357 358 358
336 334 334 333 332 332 332 331 334 334 333 335 335 335 332 332 334 334 338 334 332 334 335 333 333 334 335 336 336 335 336 345 345 346 350 349 351 350 349 350 351 351 353 355 357 353 353 353 355 356 357 358 358 356 357 358 358 358 358 358 359 362 361 362 362 361 359 359 360 360 359 360 360 359 358 357 355 358 357 357 357 356 356 356 356
335 333 331 330 329 329 330 330 332 333 331 332 333 332 331 331 332 333 332 331 332 335 334 332 333 334 335 337 335 337 340 347 348 347 350 348 348 349 349 350 350 351 351 349 352 355 354 354 354 355 355 356 357 358 359 360 358 358 358 357 358 358 363 360 361 360 358 358 359 359 358 360 359 358 357 358 358 356 357 356 357 356 356 356 356
333 332 330 329 328 327 327 330 330 330 330 330 330 329 330 330 331 332 330 330 331 331 333 332 333 335 336 336 336 341 345 343 346 347 349 347 348 348 347 348 349 350 354 352 351 351 352 353 354 354 355 356 357 357 357 358 358 358 358 357 356 357 360 355 357 359 359 359 359 358 358 360 360 358 358 357 357 357 357 357 356 357 356 357 357
332 331 329 328 327 326 326 328 330 326 327 327 325 329 329 330 330 334 330 328 330 331 332 332 333 334 335 336 337 342 344 345 346 345 346 346 344 346 346 346 347 350 347 348 348 349 352 352 351 353 355 354 355 355 357 358 358 357 358 357 356 357 354 354 355 359 359 358 359 360 358 359 359 359 358 358 357 357 356 357 355 355 355 357 357
332 331 329 330 327 326 326 327 328 325 326 325 324 326 328 328 330 330 331 329 330 331 330 332 333 334 334 337 338 344 344 344 347 349 346 346 345 345 347 346 347 347 347 348 349 349 350 351 352 352 353 353 355 354 355 356 357 358 358 357 357 357 356 354 357 360 358 358 359 361 358 359 359 359 359 358 357 357 356 357 355 354 356 357 357
331 331 329 327 326 325 325 326 327 324 324 323 322 326 327 328 328 329 330 330 330 331 329 331 332 333 335 336 340 340 343 347 345 344 345 344 348 351 348 345 348 347 344 347 349 350 350 350 348 348 348 354 354 354 355 356 356 355 355 358 358 356 354 354 358 361 360 358 359 360 358 358 360 359 358 358 358 357 356 356 356 356 355 357 357
328 327 328 328 324 324 324 325 324 324 324 321 321 323 324 327 327 331 328 329 330 330 326 329 330 330 334 334 338 340 338 343 343 344 344 342 343 348 345 347 348 347 348 349 346 348 351 351 352 350 348 349 354 355 355 355 356 355 353 358 358 357 356 354 354 359 358 357 359 359 358 358 358 359 358 358 358 356 358 358 357 356 355 356 356
330 326 324 327 325 323 323 322 322 325 324 321 322 325 327 329 328 329 329 326 326 327 324 328 326 327 330 330 332 339 339 337 338 345 343 342 344 345 345 344 346 345 345 348 349 349 349 348 349 349 350 349 348 352 354 354 355 355 354 356 357 357 356 355 352 358 360 357 359 359 359 358 358 358 358 357 358 357 358 357 357 355 356 356 356
333 328 326 323 322 321 321 320 320 323 325 324 326 331 324 326 327 326 327 326 325 326 323 326 322 321 323 325 327 330 335 331 332 338 340 345 345 342 343 342 344 345 345 346 346 347 348 348 346 348 349 349 349 347 347 349 352 354 354 355 356 356 356 355 353 358 361 359 360 360 359 359 359 358 358 357 358 357 357 358 357 355 356 356 356
330 330 324 323 322 321 320 319 320 326 322 322 322 322 324 325 325 324 324 324 325 327 322 323 319 322 325 324 320 321 327 327 329 333 334 344 341 341 345 342 343 345 344 344 344 345 346 347 348 347 346 345 348 349 348 349 350 354 355 355 355 354 356 355 354 357 360 360 359 358 359 359 358 358 359 357 358 356 355 357 356 356 357 356 357
327 328 323 321 321 321 320 320 321 323 323 322 322 322 324 323 323 324 324 320 320 321 324 321 321 321 320 321 322 319 316 319 323 329 332 337 334 341 344 342 343 343 344 342 343 344 345 346 347 347 346 346 347 349 348 346 349 353 354 354 355 354 354 355 355 357 357 356 355 355 358 359 359 359 359 358 357 354 355 357 357 357 356 357 356
323 324 326 320 320 321 321 321 322 324 326 322 322 324 326 323 322 321 320 319 318 319 319 321 319 324 323 320 317 316 316 320 323 324 329 332 330 335 346 342 342 344 342 341 342 342 344 344 345 346 346 345 346 348 348 348 348 350 350 354 354 353 351 351 354 355 356 355 352 354 355 358 358 358 358 358 357 356 356 356 357 357 356 356 356
322 322 324 325 320 321 322 322 324 325 327 323 323 323 323 324 322 320 320 320 318 317 315 318 320 321 321 322 322 319 318 322 319 315 326 332 329 330 335 339 340 341 341 341 340 340 345 343 344 345 344 344 345 346 347 346 349 348 348 349 353 354 353 354 355 356 355 354 354 353 354 358 358 357 358 358 357 357 358 357 357 358 357 356 357
321 321 321 325 322 321 322 323 325 326 329 324 323 321 320 323 324 318 319 321 318 315 314 313 315 316 318 317 321 326 326 318 314 318 315 320 324 325 327 328 336 339 340 339 339 340 341 343 343 343 345 345 344 345 345 345 347 348 350 352 352 353 352 352 355 355 355 355 354 353 354 357 357 357 358 357 357 357 358 357 356 358 357 355 355
319 320 320 323 327 322 323 324 326 328 327 323 323 322 320 320 322 319 318 318 317 316 315 313 311 312 318 315 318 320 318 318 319 319 316 313 315 321 324 324 328 336 339 338 337 338 339 340 342 342 343 344 345 346 345 344 344 344 348 351 353 352 352 351 354 355 356 355 353 352 354 357 357 358 357 357 356 358 357 357 356 355 356 357 356
318 318 320 322 329 325 324 324 326 327 326 322 322 322 320 318 317 316 315 315 317 321 316 313 312 311 312 313 314 315 315 315 317 319 316 312 313 314 316 321 324 327 334 338 337 337 339 340 342 342 343 342 343 344 346 345 345 344 346 348 351 352 352 353 353 354 355 355 355 354 354 355 357 357 356 356 356 356 357 357 356 356 356 356 356
318 318 318 322 324 326 324 323 323 326 327 320 320 319 318 317 317 316 315 314 315 315 317 314 313 313 312 313 312 314 312 312 313 314 315 315 311 312 315 315 316 322 332 335 336 336 337 338 339 339 339 340 342 343 344 346 347 345 345 348 349 350 352 351 353 354 356 356 355 355 356 354 356 356 356 356 355 356 356 356 355 356 355 354 356
317 319 319 322 324 327 322 321 323 325 323 319 319 317 316 316 316 315 314 313 314 314 314 314 313 313 313 313 311 314 310 310 310 312 312 311 311 312 314 316 317 319 326 335 337 336 336 336 338 339 338 339 340 342 344 345 350 350 351 350 349 350 350 352 353 353 354 354 355 355 356 355 356 357 356 356 356 356 355 354 354 354 355 353 355
316 317 318 323 324 321 322 318 320 319 318 319 319 317 315 315 315 315 314 314 314 316 313 312 312 312 313 313 313 313 313 312 313 314 314 312 313 311 312 315 316 319 326 331 333 335 335 334 336 339 338 339 341 343 345 344 347 352 350 351 350 350 350 351 353 353 354 355 356 357 356 356 355 356 356 356 354 355 353 352 354 355 354 354 354
315 317 319 321 322 320 318 316 316 320 320 318 318 316 314 314 314 314 314 313 313 313 313 312 312 312 312 313 313 313 313 314 314 314 316 315 314 312 314 315 313 316 322 328 328 334 334 333 335 339 339 339 342 341 343 343 345 349 351 348 351 350 349 350 352 355 354 355 356 357 357 356 356 356 355 355 354 353 352 352 354 354 356 354 351
316 317 319 320 319 320 318 317 317 318 320 319 318 318 315 315 314 313 314 313 314 313 312 313 313 313 313 312 313 313 313 315 315 318 316 315 313 313 314 315 315 316 320 322 325 328 330 333 335 335 338 340 341 341 341 343 343 349 350 346 346 348 348 349 350 352 354 354 355 356 356 356 356 356 355 355 355 355 354 355 357 356 356 355 355
316 320 319 316 317 319 320 316 316 316 316 315 319 316 315 313 316 315 316 313 313 314 312 312 313 312 312 312 314 313 314 315 316 319 319 318 317 316 315 313 313 314 316 319 321 324 329 332 335 333 334 341 340 341 342 342 346 349 348 342 342 347 346 348 348 348 349 351 354 354 355 355 354 355 356 356 357 357 356 358 357 358 357 356 356
320 317 318 316 315 316 317 317 317 315 316 315 315 316 315 313 312 313 313 317 312 312 312 311 312 312 312 312 312 311 313 315 316 318 318 319 319 318 317 315 313 311 314 313 316 320 328 329 332 333 333 335 341 341 345 343 343 347 346 342 341 343 345 345 347 348 346 347 351 354 354 354 353 356 356 356 355 356 357 358 358 357 357 356 356
320 321 319 319 318 316 315 316 317 317 315 316 315 315 315 313 312 312 312 312 315 312 312 311 311 312 312 312 311 311 312 314 314 316 315 317 319 319 319 317 317 314 313 311 312 316 322 327 326 330 333 333 336 339 340 339 346 346 343 342 341 342 344 345 345 345 345 345 346 350 354 353 353 355 355 356 356 356 357 356 358 357 357 357 357
319 320 316 315 316 320 314 315 316 317 317 316 315 314 315 314 313 313 314 313 312 312 315 312 312 313 314 312 311 310 312 311 311 314 314 315 316 318 318 319 318 315 315 311 312 316 320 324 330 330 332 332 333 338 340 338 346 345 344 342 341 343 344 344 344 344 344 345 344 344 346 350 352 353 354 354 355 356 355 357 357 356 357 357 357
319 315 314 315 315 315 314 314 315 315 316 317 317 314 314 312 315 314 314 313 311 310 311 314 313 311 310 310 310 309 310 310 310 311 312 314 315 316 317 318 318 317 316 314 309 315 323 320 326 335 333 331 330 333 335 337 344 344 343 343 343 345 344 344 345 344 344 343 343 344 344 347 351 353 354 354 354 355 353 356 355 354 357 357 357
315 316 315 315 315 316 317 316 316 316 316 316 317 315 314 314 312 312 313 313 312 311 311 313 313 310 309 309 310 309 310 310 309 310 311 312 315 315 316 316 316 316 318 314 311 313 320 321 322 329 331 331 328 329 329 332 336 341 342 342 345 346 343 340 343 344 343 343 342 343 343 344 347 349 351 351 351 350 352 352 351 351 354 356 356
316 315 315 315 316 316 315 317 315 315 315 315 316 315 313 313 313 312 311 312 312 311 313 310 311 309 310 308 309 311 310 309 309 309 310 311 313 313 315 316 315 315 317 316 313 314 317 322 323 325 330 330 326 327 326 327 328 330 335 334 337 339 342 340 340 342 343 343 343 342 343 343 344 348 350 349 351 352 352 353 351 350 350 354 355
316 316 316 317 315 315 314 313 313 314 314 314 315 315 314 314 314 315 310 310 309 308 310 309 309 311 309 308 309 311 312 310 310 309 310 309 311 311 311 314 314 314 317 316 315 313 314 319 320 323 326 326 323 326 325 324 324 327 326 329 334 337 338 340 339 341 342 342 343 342 342 341 342 342 343 348 350 350 353 352 350 350 349 348 349
317 316 316 316 314 313 313 313 312 313 313 314 314 314 315 315 315 316 313 309 308 308 309 309 309 309 308 310 309 310 313 310 310 310 310 309 311 311 310 312 313 314 316 318 316 314 315 316 319 320 323 321 320 321 324 324 325 324 323 325 329 333 337 336 335 335 340 342 342 342 342 341 341 341 342 344 347 348 349 349 348 348 345 343 342
316 318 317 315 314 313 312 312 312 312 313 313 314 314 315 315 315 315 314 309 308 308 310 310 309 309 308 308 309 310 311 309 309 309 310 310 310 311 310 310 313 313 316 318 318 314 315 315 317 318 320 319 319 320 323 322 321 321 322 323 325 325 329 334 332 332 336 340 342 343 342 341 341 340 340 340 341 343 345 342 341 341 340 339 340
315 317 318 316 314 313 314 312 311 311 312 313 313 314 315 315 315 316 315 310 308 308 310 313 317 310 310 308 308 308 308 308 308 308 310 310 311 312 311 310 312 314 316 317 317 317 316 315 316 318 318 318 319 318 320 318 318 318 320 321 322 323 324 330 332 332 335 337 337 341 341 342 340 341 340 339 338 338 340 340 339 340 340 340 339
316 315 315 316 316 313 313 313 312 312 312 313 312 312 313 315 315 316 316 313 310 308 308 310 310 312 310 310 310 309 307 307 308 308 308 308 311 311 311 311 311 313 313 315 317 317 317 315 314 314 315 315 314 314 316 318 316 315 316 318 321 322 322 323 328 331 331 331 332 336 341 341 339 334 340 341 339 338 338 340 339 340 340 339 337
317 317 317 316 318 315 314 314 313 313 313 313 312 313 313 314 314 315 316 314 309 310 309 309 309 309 310 311 312 311 310 309 308 308 307 307 312 311 313 311 311 311 312 314 315 315 315 314 314 314 313 314 313 311 313 315 315 315 314 315 317 320 321 322 323 328 329 328 332 336 342 343 342 338 332 334 334 335 334 335 336 337 339 340 336
317 318 317 317 318 316 315 315 315 318 313 314 313 313 313 314 315 315 315 317 311 309 309 308 308 308 310 312 313 312 312 311 309 308 308 309 311 311 312 312 312 310 310 313 312 313 312 313 312 312 312 311 311 312 314 311 310 312 315 315 314 316 318 321 321 324 329 326 326 329 337 341 341 339 336 336 337 337 337 335 337 340 341 341 338
322 318 319 318 317 316 316 316 315 316 315 315 316 316 314 315 313 314 314 315 312 310 308 308 307 307 308 311 314 313 317 316 316 318 317 318 316 311 312 311 315 310 309 311 311 311 311 311 311 311 309 309 309 310 309 308 308 308 312 314 315 317 318 319 320 324 329 324 324 327 331 339 338 337 336 336 340 340 340 338 340 341 342 342 339
318 320 318 319 317 316 315 315 315 317 316 317 322 323 324 318 313 315 315 314 313 310 310 308 307 308 308 308 316 319 317 315 315 319 320 319 319 318 314 315 313 309 308 308 308 309 312 309 309 309 307 306 308 309 309 308 310 311 312 313 313 316 317 317 320 321 327 323 322 323 327 337 337 336 336 335 336 337 336 337 338 341 340 338 336
318 321 317 317 316 318 317 315 315 316 317 319 321 322 323 324 319 315 314 314 314 310 309 307 308 310 308 309 308 313 316 316 314 319 320 319 321 321 323 323 324 311 307 307 308 307 309 308 309 309 307 306 305 308 309 309 310 310 310 312 313 315 314 314 313 319 325 323 322 322 325 332 338 334 335 335 335 334 332 331 330 334 338 336 335
319 318 316 317 317 317 319 316 317 317 315 325 320 321 322 323 324 318 314 315 316 312 309 308 309 310 309 308 308 309 310 311 311 307 313 319 321 321 322 323 322 319 322 315 310 305 305 305 305 305 306 305 306 307 309 311 310 310 311 311 312 312 312 312 313 314 320 325 321 322 323 328 335 336 333 335 335 334 331 329 330 332 333 335 334
320 318 316 318 317 317 317 316 319 319 317 323 322 321 322 323 323 323 314 315 315 314 309 309 309 308 308 310 310 309 307 315 315 306 307 308 317 320 320 321 322 323 320 320 321 317 307 306 304 304 303 305 306 308 311 314 315 309 309 309 311 313 313 313 313 315 321 325 324 324 322 325 329 334 332 335 335 334 331 328 329 331 331 332 334
317 317 317 318 317 316 317 316 318 318 314 325 325 323 322 323 324 323 314 314 315 313 310 309 310 308 308 309 307 307 305 305 308 309 308 305 306 306 306 307 307 313 318 320 320 323 322 313 307 305 307 310 308 310 315 314 313 311 309 310 313 314 316 316 318 318 321 327 323 323 322 323 326 329 330 332 337 335 332 325 325 328 328 328 329
316 315 315 315 316 322 320 319 317 317 316 327 327 324 325 324 325 324 312 316 314 313 311 310 309 308 307 309 308 306 304 303 312 313 309 304 304 305 306 306 307 307 307 309 311 313 318 315 313 312 311 309 308 309 311 313 312 313 313 313 316 317 319 322 320 320 320 325 324 324 319 322 324 327 330 331 335 334 334 326 325 327 327 326 326
318 318 317 318 318 318 317 316 316 317 316 327 328 327 327 327 322 318 313 313 313 312 311 310 308 307 307 307 307 306 304 303 310 315 316 310 303 304 305 305 305 306 306 316 318 321 322 320 318 318 317 317 324 324 323 319 317 317 321 320 318 318 318 316 317 320 319 322 324 323 322 320 323 323 329 331 332 333 333 332 329 328 326 326 325
317 316 316 316 319 318 318 319 318 316 317 324 326 325 326 327 324 315 313 313 313 312 309 310 308 308 308 307 306 304 304 304 311 316 318 314 303 303 304 305 305 304 305 307 316 320 322 323 324 325 323 324 325 325 325 326 326 324 316 312 313 315 316 314 316 317 316 320 323 324 320 318 321 322 324 331 331 333 332 332 334 329 326 325 324
315 316 317 318 317 318 323 320 318 316 316 322 326 323 324 326 325 313 312 313 311 312 309 310 308 307 311 316 319 305 304 307 314 316 317 314 303 303 304 305 303 301 303 306 309 313 320 320 322 322 322 323 323 323 325 325 325 326 312 311 313 315 315 316 315 316 317 318 322 326 318 317 321 322 322 324 333 332 332 333 335 333 330 327 323
316 315 322 318 316 317 317 319 333 323 317 322 325 323 322 323 324 315 314 311 310 309 309 308 309 308 307 319 316 316 311 313 315 315 316 313 305 304 303 303 304 302 303 306 308 311 311 311 312 317 316 317 316 315 319 324 324 323 314 313 315 315 314 315 315 315 312 313 321 326 318 318 320 321 322 320 319 325 330 332 335 335 336 336 335
Wind_Speed
6 5 5 5 5 5 5 5 5 5 5 6 5 5 5 5 5 5 4 4 4 5 4 3 3 4 5 6 6 7 7 7 8 7 6 6 6 9 16 18 19 19 20 22 18 22 23 26 26 23 19 18 18 16 20 22 20 20 20 19 19 18 18 20 19 20 20 20 20 19 18 18 19 18 18 18 17 17 13 14 15 15 14 13 12
5 5 5 4 4 4 5 5 5 5 5 6 5 5 5 5 5 5 5 5 5 5 4 5 6 5 3 5 5 5 6 7 8 6 7 7 7 7 15 18 19 18 18 19 17 17 20 23 25 24 23 21 20 19 22 23 21 20 20 19 19 19 20 19 18 19 20 20 20 20 16 15 16 17 17 18 18 18 16 15 14 14 14 14 13
5 5 5 4 5 5 5 5 6 5 5 5 5 4 4 4 4 5 5 5 5 5 5 5 6 6 5 5 6 5 5 6 6 6 7 7 6 6 9 16 16 14 14 13 14 17 18 21 24 24 23 22 22 22 24 24 21 20 20 19 20 20 20 20 20 20 20 20 20 20 19 19 17 17 19 18 18 19 18 16 14 13 14 15 14
6 5 5 5 5 5 5 5 5 5 5 5 5 5 4 4 4 4 4 3 5 5 5 5 5 6 5 6 5 4 5 4 5 6 6 5 5 6 6 7 11 13 12 12 13 15 17 17 21 22 22 21 22 22 23 23 22 21 20 20 20 21 21 20 21 20 20 20 21 20 20 19 20 21 18 16 18 20 18 17 15 14 13 14 15
6 6 5 5 5 5 6 6 5 5 5 5 5 5 6 6 6 5 5 5 5 6 5 5 5 6 6 6 5 4 5 0 2 4 5 5 4 4 4 5 5 8 10 11 13 12 13 14 18 21 21 21 20 19 23 22 18 17 18 20 22 22 22 21 20 19 19 19 20 20 20 20 21 18 17 19 19 20 19 19 16 14 15 14 13
6 6 6 6 6 6 6 6 6 5 5 6 6 5 6 6 6 5 6 5 6 6 6 6 6 5 5 5 5 5 4 1 0 1 1 2 1 1 2 4 4 3 3 8 11 9 9 13 17 20 20 21 20 21 22 20 19 18 17 18 22 22 21 21 19 19 19 20 19 19 20 20 20 20 21 21 20 19 19 17 17 17 16 15 14
6 5 6 5 6 6 6 5 6 5 6 5 5 6 5 6 5 6 6 6 6 5 5 6 6 7 7 6 6 6 3 3 2 1 1 2 2 2 1 2 4 5 4 3 5 10 9 11 15 18 20 20 20 21 21 21 23 21 18 18 20 20 19 15 20 20 18 20 20 20 21 20 20 19 20 21 19 19 19 19 20 19 17 16 16
6 5 6 5 5 5 5 6 6 6 6 6 6 6 6 6 5 3 6 6 6 7 6 6 6 7 6 6 5 4 4 2 3 3 2 2 4 2 3 3 4 4 6 4 3 3 9 10 11 13 17 19 20 19 20 21 21 23 22 21 17 19 14 20 21 21 19 19 19 20 21 21 21 21 20 21 21 20 19 20 20 19 18 19 17
6 6 6 6 6 6 6 6 6 6 6 6 6 5 4 5 6 6 3 4 6 7 7 6 7 6 6 5 5 2 3 4 3 3 1 5 4 4 4 5 4 5 4 5 4 4 5 7 11 15 17 17 19 20 20 23 23 23 23 21 17 19 21 24 23 20 19 20 20 20 21 21 22 22 22 21 21 21 20 19 21 20 20 20 19
6 5 5 5 5 5 5 7 6 6 6 6 6 6 6 5 6 6 5 5 6 7 8 7 6 6 6 5 4 4 4 4 3 3 4 5 5 5 6 4 4 5 5 4 3 3 4 7 10 10 14 17 19 19 21 21 22 22 22 23 21 20 21 24 23 21 20 21 21 21 21 22 21 21 22 22 22 22 21 22 22 22 21 20 19
5 4 5 5 6 6 6 6 6 6 6 6 7 7 7 6 5 6 6 5 4 5 6 6 6 5 4 5 3 5 4 3 3 4 5 5 4 5 4 4 4 2 4 4 4 3 3 3 3 3 5 12 15 17 19 21 22 23 24 24 20 21 22 24 23 20 19 20 22 21 20 21 21 22 22 22 22 22 21 21 22 22 23 22 20
4 5 5 5 5 5 6 6 6 6 7 7 7 6 6 6 6 5 7 6 6 7 8 7 6 3 4 5 4 4 7 4 3 3 4 4 4 4 4 3 3 3 3 4 4 4 3 3 3 3 4 8 13 13 17 21 23 22 25 23 21 23 25 23 23 22 21 21 22 21 20 20 21 20 21 21 22 21 22 21 21 22 22 21 22
4 5 6 6 5 5 6 6 6 6 6 6 5 6 6 4 4 4 6 6 7 8 9 6 5 7 5 4 5 4 6 6 6 4 3 2 3 4 4 4 4 4 5 4 5 5 3 3 3 3 3 4 6 12 16 19 22 22 23 23 21 22 24 24 25 23 22 22 21 21 20 20 20 20 20 22 21 22 20 22 21 21 21 21 21
4 4 5 5 6 6 6 6 6 6 5 5 7 6 6 6 5 6 4 5 4 6 8 7 6 5 4 6 5 4 4 6 7 7 6 5 3 3 3 4 6 5 5 4 5 5 5 4 3 3 3 3 5 5 5 8 15 24 25 21 22 24 24 22 25 25 21 21 21 21 22 22 21 21 19 19 19 20 22 21 21 22 22 22 21
3 4 4 5 5 6 6 6 6 6 7 8 7 7 6 6 6 5 6 5 3 4 7 6 5 6 3 1 4 6 5 8 6 6 7 5 5 5 5 5 6 5 5 5 5 5 5 5 4 3 3 3 4 4 5 8 9 17 23 23 22 24 23 25 27 24 21 21 21 20 22 22 22 21 20 19 18 18 21 20 22 22 22 22 21
4 3 4 5 5 6 6 6 7 6 6 6 7 6 6 6 7 7 5 6 6 6 6 6 5 6 5 2 2 2 4 6 6 5 6 6 9 6 4 5 5 5 5 6 6 5 5 5 6 5 2 2 2 4 5 5 11 15 18 22 24 21 23 27 27 25 21 18 21 20 22 22 21 20 20 19 20 19 21 22 22 21 22 22 23
4 4 4 5 5 6 6 6 6 7 6 6 6 6 5 5 7 6 7 4 7 5 7 7 7 5 3 3 4 4 1 4 5 4 5 5 9 7 5 5 6 5 5 5 5 5 5 6 6 5 5 4 3 2 2 4 6 7 11 17 22 23 24 26 24 22 20 19 23 22 21 21 20 20 20 21 19 21 22 22 21 21 22 22 22
4 4 5 5 6 6 5 6 6 7 6 5 5 6 7 7 6 6 8 6 3 6 8 8 4 6 5 3 1 1 3 4 3 4 4 1 6 6 5 6 4 5 5 5 6 5 5 5 5 6 5 5 5 3 1 3 4 6 5 8 18 22 21 25 22 21 20 20 20 19 20 19 20 19 19 20 20 21 22 21 21 21 21 22 21
5 5 6 5 5 5 5 5 6 6 6 6 6 6 6 6 6 7 6 6 6 6 7 7 7 8 8 7 6 3 2 2 3 3 5 5 4 6 6 8 5 4 5 5 6 6 6 5 5 5 5 6 4 3 2 3 4 5 11 13 15 19 22 22 22 21 18 21 22 20 20 20 19 19 20 19 18 20 19 18 21 20 20 21 21
5 6 5 5 5 5 6 6 6 6 7 6 6 5 6 7 7 6 7 7 6 6 5 6 6 6 7 8 7 6 5 5 3 2 1 4 8 8 4 8 6 3 4 5 6 6 6 6 6 5 5 6 6 5 4 2 2 2 3 11 16 17 18 21 21 21 21 22 22 22 22 20 20 20 20 19 19 20 18 19 20 19 22 23 22
5 5 4 4 4 5 6 6 6 6 6 6 6 6 7 7 7 8 7 7 6 4 5 6 7 6 7 8 7 7 5 3 4 4 4 4 3 5 8 8 5 4 5 5 4 4 5 5 5 5 6 6 6 7 7 4 2 1 4 7 10 16 17 18 18 19 23 23 22 22 21 21 20 20 20 20 17 21 20 21 22 20 22 20 23
5 4 3 3 4 5 6 6 7 7 6 6 6 7 7 6 5 5 6 7 6 6 5 6 6 6 5 5 6 7 7 6 4 5 3 3 2 5 6 6 7 7 4 6 5 5 5 5 5 6 6 5 6 7 7 8 4 2 3 8 10 7 14 20 22 23 23 23 22 21 21 20 19 20 19 19 20 20 18 19 21 21 20 22 22
5 4 3 4 6 5 6 6 6 6 6 6 6 5 6 5 6 6 7 7 6 7 8 7 6 7 8 6 5 5 3 4 5 4 3 3 4 5 7 5 4 6 6 5 4 4 4 5 5 5 5 6 6 6 7 7 9 6 8 4 8 11 10 14 20 22 22 21 23 24 22 22 22 19 21 19 19 18 17 19 22 21 21 19 19
4 4 5 5 5 5 5 6 6 6 6 4 5 5 5 5 6 6 6 6 7 7 7 8 8 7 7 6 6 5 6 6 5 4 4 3 3 4 5 6 4 3 4 5 3 4 4 5 5 4 5 5 5 6 6 7 8 16 8 12 7 5 12 12 17 19 21 22 22 22 21 21 21 19 18 20 17 16 21 20 21 19 20 21 23
5 5 5 6 4 5 5 5 5 5 4 5 4 5 5 5 5 5 6 7 6 6 7 6 6 7 6 5 6 7 7 6 5 5 5 3 5 6 5 3 2 5 4 3 2 4 2 4 5 5 5 6 5 6 6 7 6 13 13 9 14 9 7 10 16 17 19 21 20 21 20 21 22 19 21 19 21 21 22 23 23 22 22 20 22
3 4 3 4 4 3 3 3 3 4 4 4 4 4 4 5 5 6 6 6 7 7 6 6 7 6 6 7 8 7 7 7 6 6 6 6 6 5 6 5 3 4 3 3 3 4 5 5 4 5 5 5 5 5 6 6 6 14 15 9 10 12 9 10 8 10 16 18 18 19 20 21 20 20 21 23 23 22 23 23 25 24 22 19 18
4 2 4 5 4 3 3 3 4 4 4 4 3 3 3 4 4 4 5 5 6 6 5 6 7 7 7 6 7 8 7 7 6 6 5 5 4 4 5 8 7 4 5 2 3 3 2 3 3 5 5 5 4 5 5 5 8 14 12 7 6 13 11 9 6 7 8 9 20 20 23 23 22 23 23 24 23 24 25 24 24 24 22 22 21
4 4 4 4 4 4 3 4 4 4 4 4 3 3 3 4 3 3 4 3 5 4 3 4 5 6 6 6 7 7 7 7 7 6 6 5 5 5 6 5 6 6 5 4 4 3 3 3 3 4 5 5 4 3 5 5 5 10 9 5 5 6 12 11 9 7 2 7 11 22 24 24 25 26 26 24 25 26 24 25 25 25 24 23 24
4 3 3 3 3 4 4 4 3 3 4 3 3 2 2 3 3 3 3 3 3 3 3 4 4 5 5 6 5 5 6 6 7 7 7 6 6 5 5 5 3 4 5 4 4 2 5 4 2 4 5 6 5 4 4 4 5 5 4 5 5 5 11 12 13 9 6 3 7 11 20 24 24 24 25 26 26 25 25 24 24 25 24 24 24
4 3 3 4 4 4 4 4 4 4 4 4 3 3 3 3 2 2 1 2 3 3 3 4 4 4 5 5 5 6 5 6 6 6 6 6 6 6 6 5 4 6 4 4 5 2 4 5 2 2 5 6 5 4 3 4 6 4 3 4 4 5 10 11 12 11 10 7 1 6 8 16 22 22 23 23 22 21 23 24 25 25 24 24 24
4 4 4 4 3 4 4 4 4 5 5 4 4 4 3 3 3 3 2 2 2 3 3 3 3 5 6 7 6 6 5 6 6 6 6 6 6 6 6 6 6 5 5 4 3 5 1 5 4 3 2 4 5 4 5 5 6 5 3 3 4 8 9 8 13 13 13 10 6 5 3 7 17 20 20 21 20 21 24 23 18 23 24 24 24
4 3 3 3 4 4 4 5 5 5 6 6 6 6 5 5 5 5 2 1 2 4 4 4 4 5 6 6 5 5 5 5 6 6 6 6 5 6 6 6 6 6 4 3 2 5 3 3 6 5 4 3 6 7 7 6 7 10 5 5 4 5 5 5 9 13 13 12 9 3 3 1 6 12 14 16 19 22 19 20 22 23 23 24 24
2 3 3 3 3 3 4 4 4 4 5 6 6 6 6 7 7 5 3 3 4 4 4 5 4 4 5 4 4 4 4 5 6 6 6 6 6 5 5 6 6 6 6 5 6 7 5 4 5 4 5 5 7 7 8 7 8 8 7 6 6 5 3 4 4 6 10 11 10 7 2 3 3 11 18 22 23 23 25 22 21 19 20 20 20
5 3 3 2 3 4 4 4 4 5 5 5 5 6 6 7 7 6 7 6 5 4 4 4 4 3 3 4 4 5 4 4 5 6 6 6 6 6 7 6 7 7 6 5 5 2 6 7 9 8 6 9 7 8 7 8 8 8 9 9 7 6 6 5 5 4 6 7 8 8 4 2 3 4 3 18 23 22 21 22 23 22 21 18 16
3 4 3 3 3 4 4 4 4 5 4 4 4 5 5 5 6 6 6 5 5 5 4 3 3 3 4 3 4 4 4 6 5 5 5 5 5 6 7 6 6 6 6 4 4 4 6 6 6 7 7 6 7 8 8 6 5 6 8 8 7 7 6 7 6 5 7 7 6 7 7 4 2 5 6 6 13 19 18 16 18 17 18 16 17
4 4 4 3 3 4 4 4 4 4 4 4 4 4 5 5 5 6 6 6 5 4 3 2 2 3 3 3 4 4 4 5 5 6 6 5 6 6 6 6 6 6 6 5 4 2 2 5 7 6 6 6 6 8 8 6 8 7 6 6 7 8 8 7 7 6 9 13 10 8 9 8 5 4 5 5 3 4 10 13 14 15 16 17 16
3 1 1 2 3 3 4 3 3 3 4 4 4 5 5 4 4 5 5 4 4 4 2 1 2 2 3 3 3 4 4 5 5 6 6 7 6 6 6 6 6 6 5 5 5 4 4 6 5 5 6 5 3 4 8 8 9 8 7 8 7 7 8 7 5 6 8 10 11 9 8 8 7 3 7 8 8 6 13 16 17 18 17 15 14
4 3 2 0 1 3 3 3 3 2 2 4 4 3 3 4 5 5 4 4 3 3 3 3 3 3 4 4 3 3 4 3 4 4 5 5 5 5 6 7 5 5 5 6 5 6 5 5 5 6 7 7 6 4 6 7 7 9 10 9 7 8 8 9 8 6 7 6 6 5 6 6 8 6 4 8 7 11 16 20 14 14 14 15 15
4 4 3 3 2 2 1 2 2 1 1 2 4 4 4 4 4 4 4 4 3 3 2 3 3 4 4 3 3 4 4 4 4 4 5 4 4 5 6 6 4 4 5 5 5 5 5 4 4 3 4 4 4 6 7 4 3 5 7 9 9 8 7 7 8 7 6 8 8 10 9 8 9 8 7 3 9 10 7 7 9 9 7 12 13
3 3 3 3 3 2 1 1 1 0 1 2 2 2 3 3 4 4 3 3 3 2 3 3 3 3 2 2 2 4 4 5 5 4 4 4 4 4 6 5 4 3 3 4 5 5 5 4 5 5 4 4 6 4 5 8 10 8 7 4 7 9 9 7 4 6 7 8 8 7 7 8 7 8 9 10 3 7 10 9 8 6 8 8 7
2 2 2 3 4 3 1 1 1 0 1 1 0 1 2 3 3 3 3 3 3 2 2 2 3 3 2 2 3 3 6 12 13 10 9 7 4 4 5 4 3 2 3 4 5 5 5 4 5 4 4 6 5 6 7 6 6 6 6 5 5 7 7 7 7 3 4 7 7 6 5 5 6 6 5 6 7 3 6 8 7 9 12 15 14
0 1 2 2 3 4 4 3 2 1 2 2 0 3 2 2 2 2 2 3 2 2 1 2 3 3 3 3 4 10 12 13 12 14 12 12 12 7 6 5 1 1 2 3 4 4 3 5 5 4 5 5 5 4 3 3 3 4 7 7 8 8 7 7 5 2 4 6 7 8 5 4 4 5 5 5 5 6 4 3 3 6 8 10 13
1 1 2 1 1 1 4 3 3 3 2 2 2 1 2 3 2 2 2 2 2 1 2 1 1 3 3 3 3 5 6 7 8 14 14 14 14 14 15 8 6 4 3 4 3 2 4 4 4 4 4 4 5 3 2 3 3 4 4 5 6 6 6 6 5 8 2 7 6 5 6 5 4 5 6 6 6 5 6 4 6 3 6 10 10
1 0 0 1 1 2 1 2 2 3 3 3 1 2 3 3 3 2 1 2 2 2 2 1 1 2 2 2 2 3 4 5 5 6 9 14 15 16 16 15 12 11 9 5 1 2 4 4 5 5 3 4 5 4 3 4 5 6 6 5 3 4 5 4 3 4 6 5 5 4 5 5 5 4 4 5 5 4 4 7 8 6 5 5 10
1 1 1 2 2 3 3 2 0 2 3 4 4 4 4 2 4 3 2 1 3 2 3 1 0 2 1 2 2 3 4 9 6 4 5 7 12 16 16 16 15 16 14 15 13 5 1 5 4 6 3 3 5 4 3 4 3 5 6 7 6 6 4 4 4 3 6 6 4 3 4 5 4 3 4 4 4 4 5 8 9 8 5 3 6
1 1 1 1 2 2 3 4 1 2 4 6 6 5 5 4 4 3 2 2 3 2 2 1 1 2 1 1 2 3 3 4 4 5 4 6 7 7 8 7 7 9 12 13 14 15 10 4 4 4 5 1 3 3 5 3 4 6 5 6 6 6 7 5 4 4 5 4 5 2 4 6 6 3 3 4 3 4 5 7 10 10 8 6 2
2 3 3 3 3 3 3 3 2 3 4 8 6 7 5 4 4 3 2 2 3 3 1 1 1 2 1 0 0 2 3 4 4 6 4 5 6 6 6 7 6 5 5 6 7 5 6 5 4 4 6 5 5 5 5 4 3 3 3 5 6 5 6 6 2 1 4 5 6 2 4 4 6 4 4 3 2 4 4 7 11 11 11 9 7
0 2 2 2 3 4 4 3 2 3 5 7 7 7 6 5 5 1 2 3 3 3 1 2 1 1 1 0 0 2 3 3 7 11 9 5 6 6 7 6 7 7 6 8 11 11 10 7 5 4 4 5 7 6 5 4 4 4 4 4 3 3 5 5 7 6 6 6 5 5 3 5 5 4 4 1 2 3 3 4 7 10 11 11 10
0 1 2 2 3 3 4 3 3 4 4 6 8 7 7 6 3 2 1 2 3 2 3 2 2 1 1 0 0 1 2 3 7 7 10 8 5 5 5 6 6 5 7 8 12 14 14 14 13 11 11 11 9 10 9 7 5 3 2 6 7 5 6 6 6 5 6 5 6 6 1 4 6 4 3 4 3 1 1 1 3 5 8 9 9
2 2 2 3 3 2 2 4 3 4 5 6 9 8 8 6 6 3 1 0 2 1 2 1 1 1 2 3 2 1 1 2 6 6 7 5 4 4 5 6 6 6 8 9 8 8 12 12 11 11 10 10 11 11 11 9 7 5 5 7 5 5 6 4 4 3 4 5 6 6 2 3 4 4 2 4 3 2 3 2 1 2 3 4 7
3 2 2 2 3 3 3 3 7 5 3 5 7 9 9 8 4 3 2 0 1 1 3 2 1 0 0 2 2 2 2 1 4 4 6 5 4 4 3 4 7 7 6 6 7 8 8 8 7 6 6 9 6 5 5 12 13 9 4 4 5 5 5 4 5 4 4 6 5 5 3 5 6 5 3 3 2 2 4 4 3 2 3 3 4
Wind_Direction
37 28 41 49 36 27 24 18 9 5 0 359 5 355 0 357 354 350 345 344 338 339 332 311 268 244 239 255 246 242 240 236 233 230 226 227 231 241 244 244 242 239 246 251 250 249 238 228 229 221 216 217 217 222 227 215 212 212 213 213 213 213 208 215 210 212 209 207 204 200 200 199 200 196 199 192 190 191 190 194 193 189 188 194 195
43 37 52 44 38 30 28 16 14 359 1 2 352 0 358 355 356 350 349 346 346 333 333 322 319 306 260 254 257 242 237 232 231 220 223 231 235 245 249 245 245 245 248 258 259 259 248 230 223 224 216 218 215 216 232 223 214 213 212 213 214 212 212 211 211 213 211 208 205 202 194 200 202 198 197 193 189 192 190 194 198 192 191 194 196
48 46 48 48 39 35 28 16 20 4 359 1 351 354 344 357 346 340 342 341 329 316 321 317 314 311 312 299 282 265 252 238 223 211 216 222 230 241 252 255 254 252 261 254 251 255 251 226 216 219 218 219 217 212 226 227 217 215 213 213 214 213 215 213 210 212 212 210 207 202 190 198 204 201 197 192 187 193 190 191 199 196 194 197 197
43 42 49 42 35 33 24 26 13 0 6 4 354 352 346 341 344 346 328 328 322 323 321 320 319 314 316 313 308 299 282 230 212 212 220 217 218 229 243 258 265 267 266 276 273 259 253 222 213 215 221 220 220 220 223 227 220 218 215 213 213 213 215 214 212 210 211 210 209 204 195 192 199 202 196 199 193 191 192 192 198 198 196 202 201
38 38 37 40 33 27 24 19 5 358 359 360 359 358 358 354 345 340 335 343 343 338 334 331 331 328 321 317 320 319 302 231 205 213 221 227 218 218 239 257 264 279 278 278 281 265 249 223 213 216 216 220 221 219 225 222 227 231 229 222 213 214 215 215 214 210 213 206 209 206 200 195 195 188 193 201 202 193 192 191 195 195 201 200 205
42 37 34 32 29 30 24 14 0 356 358 3 2 355 353 350 340 340 338 349 347 334 339 343 333 323 327 320 326 328 314 182 151 343 316 280 278 237 267 284 301 303 286 289 289 267 262 224 213 216 218 223 225 224 225 221 223 228 226 232 228 216 216 215 210 211 210 210 204 207 205 201 196 192 193 198 201 195 193 191 192 195 199 199 205
44 48 36 30 27 22 18 2 356 359 2 356 358 354 357 343 340 346 332 351 353 337 342 335 332 332 327 329 326 321 340 45 40 355 359 348 355 354 348 327 316 317 301 282 293 300 275 247 225 221 220 223 225 227 226 221 221 225 228 226 239 230 213 219 215 212 201 212 209 207 207 200 196 194 193 197 198 198 192 194 194 193 195 198 203
53 47 44 32 26 20 8 358 359 360 0 354 359 1 344 341 336 356 348 351 353 350 346 341 334 328 326 322 319 335 55 76 41 23 27 21 24 9 6 349 339 322 320 313 288 242 261 262 249 239 233 225 224 226 227 226 222 221 223 226 222 230 221 222 216 210 205 208 210 211 208 201 198 191 194 198 198 198 196 198 197 192 191 198 200
49 45 48 31 23 16 1 0 357 4 359 350 356 349 353 346 339 348 359 343 356 358 348 343 334 330 326 332 346 13 38 39 43 23 34 48 35 18 15 357 337 326 310 317 302 305 294 258 238 238 237 232 228 227 225 223 222 221 222 223 218 212 213 229 218 208 204 207 207 211 211 203 199 195 194 196 197 198 197 199 200 196 195 198 198
49 42 42 31 25 17 0 0 358 1 358 357 350 346 357 7 348 348 358 7 5 360 348 337 334 334 337 355 9 26 22 27 10 13 28 39 34 20 5 327 307 308 325 307 298 298 285 280 275 254 240 233 227 222 226 228 226 221 222 220 218 212 218 226 219 209 205 204 207 211 211 205 199 196 197 196 196 197 199 198 197 199 196 195 193
52 42 43 29 19 9 7 358 360 359 359 359 357 354 353 353 359 351 359 7 6 352 343 326 332 333 348 4 15 39 26 23 25 25 33 35 34 21 6 338 334 283 284 302 312 288 270 263 272 277 271 264 244 229 226 227 227 224 224 223 215 215 218 234 222 209 206 206 207 211 210 211 202 196 198 198 197 198 200 197 199 198 197 192 189
55 44 40 35 25 11 4 2 1 3 4 3 356 352 347 346 351 3 2 355 7 3 356 342 335 335 7 358 2 17 30 24 22 29 36 22 38 17 352 312 354 353 333 317 303 298 292 262 257 259 256 269 264 247 235 230 231 226 222 221 214 215 218 226 231 209 207 206 205 209 209 208 209 202 200 198 200 197 199 194 197 200 197 193 191
53 43 40 33 27 13 13 3 2 5 3 355 344 352 358 352 347 5 10 5 6 4 357 337 355 357 356 4 1 349 27 23 19 21 28 37 12 2 341 9 356 9 359 343 338 333 317 294 287 285 270 233 259 260 251 235 230 227 226 220 219 221 221 224 226 217 208 208 204 204 204 204 208 205 203 203 201 197 198 199 198 201 197 195 194
51 40 40 38 26 17 15 7 2 360 357 356 8 15 9 10 13 11 2 15 360 360 359 354 17 359 329 334 345 346 20 18 21 15 13 18 39 11 10 15 7 5 359 0 2 0 357 332 297 284 280 270 241 217 244 255 236 226 225 219 219 219 222 226 223 222 211 210 208 204 203 202 204 205 204 203 202 201 199 199 197 201 196 198 195
33 38 40 34 27 23 14 4 8 3 8 10 10 15 13 15 24 25 355 359 352 357 12 29 8 328 287 5 6 345 337 9 0 8 9 6 22 23 13 17 11 4 354 0 7 3 359 351 340 295 274 285 280 245 213 213 231 235 226 224 218 219 218 221 223 221 212 209 212 208 203 201 202 203 204 200 201 204 204 197 201 200 198 197 195
37 35 42 37 30 24 10 12 3 9 17 19 13 13 12 15 20 24 19 12 2 349 13 15 29 2 10 13 299 31 348 359 343 310 2 10 16 16 10 8 9 11 7 9 3 2 358 356 1 354 309 274 265 263 221 215 230 241 236 222 224 216 223 222 220 220 215 214 218 212 203 200 199 202 198 199 198 198 213 201 199 200 201 197 195
37 31 43 40 29 21 17 8 11 9 18 24 21 17 15 14 19 25 28 16 4 352 354 13 19 32 27 1 360 27 21 283 330 295 355 5 8 4 13 10 13 13 14 5 357 360 352 359 3 5 348 318 311 302 264 228 230 240 239 233 223 214 218 233 222 216 217 215 220 214 204 199 200 204 200 199 197 200 207 206 202 199 202 197 198
38 35 36 38 27 18 17 20 14 12 19 18 20 25 19 24 19 26 21 16 13 16 4 0 12 21 40 51 269 301 327 313 30 330 327 353 13 358 13 5 3 11 6 7 3 357 357 356 1 0 0 0 341 310 322 318 270 215 215 229 231 222 213 222 219 217 215 217 223 221 211 200 202 203 202 202 200 205 204 204 205 202 200 199 200
39 39 33 26 27 16 18 22 18 18 18 24 23 20 22 28 24 27 21 18 25 28 15 349 359 11 3 9 21 16 339 16 10 304 350 328 18 355 353 359 353 8 2 9 2 1 353 351 357 1 357 350 344 330 310 239 238 237 231 220 223 228 219 220 216 215 214 219 219 218 213 204 203 200 205 203 202 209 200 199 208 205 198 200 202
44 38 30 23 29 23 19 20 21 19 25 23 21 14 24 26 27 25 27 28 27 31 8 11 36 347 349 4 2 7 11 33 37 62 6 333 336 348 4 356 344 352 358 5 4 357 350 346 350 1 353 352 347 335 314 304 289 303 304 248 223 221 220 218 221 216 215 217 217 214 213 203 205 206 204 201 204 206 203 201 206 209 205 198 200
40 28 14 22 32 32 28 28 26 25 28 25 24 27 32 32 22 19 21 22 20 20 36 11 17 8 358 358 357 10 355 14 15 18 56 15 324 351 333 337 344 352 352 358 359 354 349 337 346 356 351 354 351 342 339 320 299 111 254 280 263 230 215 208 215 216 216 215 215 214 213 209 206 203 205 204 198 208 205 204 204 206 208 199 204
19 23 2 11 37 37 38 37 32 31 33 25 27 27 26 28 24 22 26 27 12 22 30 16 15 4 27 4 13 357 6 359 11 359 5 68 12 324 330 341 341 321 338 350 352 355 349 345 351 354 351 353 350 348 348 347 329 165 196 243 258 268 230 204 204 212 217 214 211 211 209 211 212 206 207 207 204 205 206 208 206 203 209 210 201
13 14 15 27 46 44 43 38 35 33 33 28 27 27 24 23 15 22 25 25 14 19 24 22 16 14 16 27 27 25 21 4 338 336 24 4 353 343 332 338 302 318 326 328 341 344 349 351 357 356 350 350 347 352 353 353 0 26 13 302 224 229 243 220 210 209 215 215 207 207 208 206 209 205 206 205 203 200 203 211 213 205 206 207 213
21 29 25 43 56 47 41 37 33 33 34 32 34 33 29 22 21 22 17 16 22 29 31 23 17 16 17 11 17 14 16 10 335 327 9 343 21 342 340 325 326 314 290 327 316 347 351 357 351 343 345 346 348 352 0 1 1 23 34 16 7 245 224 229 231 218 211 212 209 204 203 207 210 206 201 205 201 196 201 210 215 206 204 203 207
2 36 50 61 59 53 41 39 31 34 38 40 34 35 28 26 20 21 23 25 22 34 34 24 26 24 7 1 16 15 7 350 1 1 350 18 34 3 335 332 304 304 297 350 328 314 335 353 357 344 345 349 355 357 356 360 353 25 33 20 17 14 334 247 234 232 221 215 211 210 206 207 210 206 203 204 204 198 200 201 209 210 205 204 207
1 34 78 75 65 59 55 49 48 52 54 54 46 30 30 34 24 26 30 26 28 32 28 22 27 25 20 19 16 12 8 3 3 14 3 16 14 8 335 335 311 299 294 333 324 12 332 342 352 357 343 351 357 357 354 356 354 29 27 22 14 17 11 3 337 279 244 224 218 216 212 209 211 206 206 204 203 199 203 204 198 205 204 199 197
54 65 77 79 75 56 39 33 32 58 64 53 34 29 28 43 30 29 38 44 42 33 24 28 24 17 20 21 17 23 12 10 11 12 4 19 18 358 11 4 346 336 342 313 324 7 323 296 327 0 354 340 346 357 357 347 19 28 26 14 5 15 19 7 357 333 346 252 222 221 220 212 206 208 202 205 202 199 202 206 202 201 199 198 200
73 77 56 62 64 56 25 8 4 21 47 60 39 25 21 49 38 26 31 41 61 42 23 34 29 21 21 21 30 22 15 13 12 11 6 1 7 11 19 24 11 339 326 329 346 329 337 347 314 351 2 346 330 341 5 6 7 26 12 1 9 7 17 8 7 8 16 317 260 219 216 216 211 207 202 200 202 203 204 205 202 202 200 196 200
78 73 67 45 58 74 49 19 2 352 8 32 46 19 17 54 41 38 30 22 61 49 30 41 26 27 37 40 42 24 15 11 12 9 3 5 6 12 23 10 343 345 336 331 309 342 329 340 339 324 356 356 343 326 350 346 7 25 347 349 3 11 17 14 14 14 21 101 312 291 222 209 210 212 205 202 199 203 206 204 204 201 200 198 199
90 114 103 78 57 46 52 39 14 3 353 0 14 12 10 38 78 27 357 27 46 17 22 35 27 39 37 37 33 36 10 22 10 4 7 4 5 7 5 2 5 24 352 326 302 301 327 326 319 309 336 356 352 344 322 329 336 360 336 334 355 6 15 14 19 16 15 44 318 336 316 222 209 208 204 204 204 205 208 204 206 203 199 199 199
92 80 67 67 61 32 41 45 31 15 7 8 354 351 0 11 38 62 3 23 30 24 1 27 21 40 36 32 22 24 10 15 15 8 6 6 4 359 2 4 8 20 4 349 345 294 337 329 316 315 318 340 0 358 354 335 338 352 316 323 333 15 11 3 8 16 22 33 24 49 16 286 223 208 207 205 206 207 208 206 206 211 199 198 199
72 70 69 63 52 49 43 48 42 25 19 16 14 3 357 358 350 23 357 29 27 29 17 15 26 32 42 34 16 13 1 13 14 8 2 358 357 2 3 2 2 7 5 9 8 301 311 316 319 306 348 350 18 13 11 7 2 5 346 338 316 339 2 351 1 7 13 18 18 34 112 137 249 233 204 205 209 208 215 205 205 218 208 199 200
86 83 72 69 70 68 58 56 48 38 31 25 17 18 21 18 6 7 18 34 33 22 39 29 23 38 37 35 10 358 358 19 8 5 5 355 351 358 359 4 4 2 6 3 358 331 313 328 324 333 336 6 26 8 18 12 9 2 3 358 358 356 326 341 349 350 360 14 16 16 52 168 186 218 207 205 215 199 200 204 206 208 222 213 200
120 115 99 79 73 66 66 56 53 42 37 33 25 29 24 19 15 10 12 18 43 56 51 36 16 24 35 33 12 358 5 11 5 8 358 353 354 354 4 2 6 357 352 0 346 321 324 333 353 346 12 19 31 5 18 10 7 8 14 7 5 4 358 336 347 341 348 1 10 7 14 25 179 152 220 215 205 207 203 200 204 203 206 216 218
116 130 139 120 99 83 68 62 59 52 41 35 32 35 27 25 18 12 14 19 40 70 70 48 18 5 22 12 8 2 7 22 7 359 356 356 350 359 354 356 359 351 343 356 350 341 348 338 343 12 9 12 32 358 358 3 4 15 15 8 4 358 354 354 357 1 352 344 352 0 9 354 252 213 197 224 208 211 206 207 200 202 195 208 207
130 162 143 139 105 86 74 59 64 67 48 37 38 35 30 25 21 19 21 30 45 69 94 80 37 23 12 11 2 10 11 32 9 1 358 358 2 358 353 348 350 348 346 347 2 336 318 353 11 13 357 6 8 7 0 0 12 7 6 353 5 4 353 351 352 358 358 356 353 8 4 351 318 249 218 211 236 209 220 211 223 195 203 201 200
7 16 82 123 97 80 80 75 60 63 79 64 48 34 25 20 28 30 29 34 46 63 68 53 32 21 22 30 1 21 27 22 12 7 351 357 352 355 357 343 340 343 345 352 353 3 16 26 357 0 3 10 355 6 13 5 356 5 2 5 353 356 352 345 346 352 348 355 353 358 11 6 354 249 194 197 203 162 198 204 216 199 202 203 199
84 112 109 42 115 108 92 84 80 45 56 85 77 56 35 25 27 25 25 28 29 52 25 9 355 352 8 13 358 17 26 18 8 1 347 339 340 349 354 346 335 337 356 355 359 9 29 30 21 3 13 7 350 2 11 2 7 6 359 351 351 1 357 350 346 348 355 352 359 353 16 18 14 24 191 187 162 162 202 204 205 196 197 194 197
79 61 72 105 124 147 149 103 79 64 37 66 73 61 45 39 32 24 14 16 7 41 40 12 11 25 28 23 23 24 12 358 0 352 334 328 326 349 347 340 327 337 4 356 356 10 21 26 20 26 1 352 1 356 349 350 17 35 7 350 354 347 350 350 337 339 351 350 349 3 14 24 31 38 47 150 167 178 177 177 196 206 210 195 187
96 82 76 95 122 137 201 151 169 70 12 65 72 62 69 57 39 25 15 5 358 19 28 24 28 33 22 13 28 11 5 6 2 345 339 325 337 357 339 343 334 350 16 359 359 4 11 16 20 359 1 349 353 352 339 6 10 3 8 350 338 342 340 332 319 330 340 352 351 350 356 7 9 26 38 37 343 186 167 173 192 196 180 203 196
160 140 121 106 114 143 203 212 201 276 324 311 151 119 74 61 60 37 14 4 353 341 31 355 26 34 4 355 3 19 14 15 17 20 14 13 355 347 329 332 325 356 28 2 1 0 357 5 357 352 0 9 0 4 360 5 7 334 311 339 327 336 328 329 322 326 5 350 341 348 353 355 2 14 28 38 21 37 165 149 178 163 172 198 199
135 105 68 102 128 156 178 211 226 230 273 277 344 50 66 110 95 66 28 10 354 317 342 6 355 12 29 11 358 16 20 16 15 16 10 14 16 11 356 320 321 33 62 21 5 348 356 2 345 341 0 359 342 350 339 315 309 323 344 351 345 332 337 336 314 313 346 2 349 347 340 346 7 16 26 32 34 19 20 69 102 170 190 184 196
209 111 85 24 343 165 160 193 211 221 240 258 67 348 25 29 95 67 31 2 329 333 288 67 349 358 23 17 347 2 11 12 11 12 7 13 14 12 6 14 135 161 105 39 0 9 357 356 327 345 341 335 330 325 315 318 333 345 335 326 317 330 348 345 334 320 14 6 342 335 338 341 22 27 19 24 21 25 22 22 29 37 193 179 181
246 37 57 295 306 304 328 130 184 199 217 221 161 289 323 5 10 90 61 9 329 285 271 224 290 12 26 3 2 2 350 8 22 8 356 358 6 12 15 28 43 62 47 50 35 16 12 7 348 324 332 320 316 327 336 357 342 340 336 326 312 324 325 328 304 302 299 339 333 335 328 349 350 37 40 16 22 36 20 23 33 50 40 193 183
219 159 279 319 286 263 284 297 177 214 221 221 203 248 289 332 346 22 72 6 336 303 269 244 60 55 31 2 350 6 342 4 8 9 359 351 356 8 12 19 18 28 26 21 20 36 107 9 344 324 305 300 329 314 341 338 338 334 328 331 329 326 301 298 287 282 311 330 331 356 355 348 5 16 45 20 18 21 27 24 37 47 46 47 193
227 257 269 235 272 263 257 264 243 216 220 234 211 235 253 287 319 349 21 9 343 312 241 234 132 89 69 3 357 340 344 349 354 6 10 7 1 4 1 7 8 5 6 9 9 4 2 352 328 305 297 281 288 289 305 326 336 327 324 316 320 324 334 316 290 269 279 331 3 295 17 358 350 10 35 48 20 29 28 32 35 39 42 33 57
224 259 263 292 295 281 265 252 215 223 227 228 210 225 240 270 297 335 21 356 9 348 207 130 171 123 84 26 306 317 330 351 347 17 26 20 13 4 1 360 356 354 349 357 353 342 339 335 320 289 285 283 261 276 283 294 284 282 261 268 291 292 285 285 262 314 350 1 357 23 47 327 347 5 12 20 48 37 14 27 33 37 35 31 22
231 279 297 274 268 273 269 259 268 248 249 240 215 218 230 241 271 356 359 350 17 348 100 145 143 160 143 107 13 319 334 338 10 16 27 38 26 10 0 352 357 346 345 349 348 349 353 347 335 321 306 295 303 293 291 287 297 306 321 307 298 336 352 6 30 355 9 342 19 17 18 355 352 11 345 8 6 62 27 23 29 37 40 38 32
273 278 274 257 265 266 278 285 272 265 260 246 225 214 219 231 248 305 338 357 25 16 130 179 182 184 179 126 205 283 341 339 16 11 15 37 23 16 358 355 348 345 354 346 343 345 348 355 4 10 19 22 19 21 20 41 19 6 359 9 8 351 10 12 9 2 352 333 2 6 17 3 348 351 330 347 341 354 43 29 2 28 30 35 40
236 252 266 297 303 283 272 285 256 253 269 256 232 213 213 218 220 224 241 36 43 89 147 205 245 253 248 163 162 219 349 337 25 7 15 28 24 10 7 353 350 351 352 349 343 338 349 354 359 354 5 20 19 21 16 27 31 35 53 24 326 351 11 13 349 336 316 354 360 354 64 349 318 357 14 285 357 336 354 317 305 310 354 10 11
226 248 281 285 295 296 287 269 289 294 271 279 251 213 209 213 223 206 198 115 78 180 171 185 272 298 339 339 262 211 202 99 38 0 358 14 16 18 4 1 356 348 336 337 330 336 347 350 350 350 356 1 0 12 3 9 13 19 22 26 355 17 350 347 3 341 1 350 339 6 54 348 1 349 12 21 354 305 11 6 15 353 324 339 348